Wetbulb
30.03 24.68 21.10 23.11 25.59 25.97 23.52 21.43 19.30 22.26 27.32 23.83 23.10 23.55 23.27 24.92 22.81 21.25 22.37 22.66 23.13 24.46 28.40 31.64 35.42 39.34 37.20 36.59 37.52 40.13 41.25 42.36 42.60 43.07 44.02 46.07 49.18 54.01 58.13 60.65 61.71 63.70 63.25 62.72
25.62 21.27 26.30 29.51 28.19 25.63 23.08 20.01 18.81 22.55 26.00 24.43 22.89 20.41 22.61 24.03 22.81 21.69 21.08 21.73 22.90 24.29 26.41 29.80 34.98 37.86 36.44 35.18 36.47 38.79 41.22 42.27 42.92 44.51 46.57 50.39 53.14 55.77 60.15 61.81 62.77 63.39 62.68 62.28
22.59 25.94 30.50 27.89 25.56 22.89 21.21 19.54 18.87 17.73 23.17 24.46 22.50 17.38 18.49 22.40 23.82 22.28 22.34 22.55 23.26 23.28 25.08 28.47 33.32 35.86 39.88 35.16 35.27 38.55 41.07 43.89 44.04 44.69 46.81 50.34 55.63 55.84 59.06 59.76 60.33 61.72 61.71 61.61
24.97 29.77 27.39 25.61 23.75 23.06 8.97 24.07 21.35 19.55 13.36 11.55 20.53 6.42 17.31 18.34 19.35 18.79 19.10 19.78 21.13 22.61 25.74 29.00 31.11 33.45 36.76 40.40 36.13 41.97 46.92 46.81 48.43 48.86 49.82 49.89 52.97 53.35 57.11 58.42 59.18 59.26 60.84 60.94
24.01 25.44 24.87 17.99 24.37 24.54 15.82 22.98 20.67 20.86 12.91 10.64 19.53 10.42 14.73 16.90 13.77 14.22 16.69 18.15 19.96 22.38 24.66 27.75 29.56 31.95 35.51 37.00 39.46 43.39 43.97 43.80 44.81 47.29 49.35 52.07 53.02 55.31 56.83 51.15 48.28 45.63 46.02 48.21
25.70 30.03 26.31 25.45 26.90 25.37 24.49 19.34 22.45 23.92 12.89 -0.67 13.63 10.18 9.56 9.59 11.84 12.75 15.23 16.26 18.84 21.18 23.39 26.56 28.63 30.65 33.30 34.27 34.95 38.21 40.35 40.31 41.59 43.21 45.65 49.93 49.31 48.75 46.92 45.15 42.67 41.43 41.29 42.09
22.06 24.66 26.91 27.69 20.12 24.34 20.28 13.52 4.54 4.72 1.17 0.62 17.73 11.75 6.81 12.51 14.40 13.14 13.14 13.95 17.92 20.04 21.97 24.62 25.87 27.28 30.68 31.43 32.48 34.79 35.70 36.67 38.01 39.48 40.86 42.30 41.39 42.08 40.72 39.69 39.13 37.67 37.26 37.45
8.30 12.92 21.62 25.69 16.91 11.91 17.97 14.06 7.07 1.52 0.90 5.41 18.79 6.50 9.27 15.24 14.62 13.59 13.41 15.51 17.10 18.30 20.61 23.45 24.80 26.24 27.96 29.71 30.55 31.37 31.95 32.27 34.03 35.29 36.75 38.26 38.38 38.07 37.59 37.14 35.47 34.52 33.63 33.41
10.63 11.94 25.74 24.37 23.47 20.15 17.87 14.42 19.22 8.08 10.12 4.37 9.93 15.00 15.74 18.57 12.86 10.34 9.02 14.12 14.75 17.06 18.94 22.28 24.07 25.17 26.68 27.87 28.62 29.15 29.72 30.05 31.19 32.00 32.19 32.61 33.38 33.40 32.72 33.28 33.22 32.38 32.43 32.13
17.10 13.20 23.67 24.32 23.71 23.24 20.07 21.47 12.92 12.73 3.16 2.54 9.89 7.93 3.12 5.93 5.79 8.29 8.30 11.80 13.58 16.79 18.19 20.72 22.47 23.70 25.13 26.72 27.49 28.34 28.90 27.67 28.46 29.90 30.57 30.47 30.63 31.34 31.36 30.25 29.51 28.59 29.34 29.34
21.05 15.11 18.72 21.60 8.88 8.57 15.54 14.13 15.53 14.79 12.83 6.93 5.62 10.07 4.15 3.56 5.32 6.14 9.47 12.56 13.85 16.16 17.92 20.14 21.91 23.29 24.01 25.16 25.78 26.04 26.53 26.43 26.65 27.83 28.92 28.38 28.17 28.89 27.74 26.56 26.22 25.97 26.06 25.99
24.24 14.38 12.54 10.05 13.34 19.84 19.45 13.33 14.21 7.12 8.14 12.89 10.85 9.95 15.21 9.43 7.86 10.89 11.02 12.87 14.25 17.64 18.21 20.48 20.86 21.89 21.39 21.77 23.48 23.87 24.68 24.90 26.16 26.82 26.52 26.24 25.97 26.48 24.66 24.04 24.37 24.90 24.12 24.82
20.82 17.98 7.21 11.08 16.98 21.59 12.72 18.02 16.14 15.76 13.44 5.52 5.19 5.72 15.31 12.37 10.79 11.38 10.56 12.66 14.07 16.24 17.01 18.65 19.42 20.11 20.56 21.25 22.20 23.29 23.84 24.01 25.17 25.79 25.77 25.27 24.93 24.34 23.83 23.78 23.82 23.77 23.22 22.84
27.05 17.43 9.06 8.98 9.95 6.14 9.97 12.78 15.38 13.49 0.40 2.26 6.14 5.33 9.60 9.80 7.47 8.73 10.17 11.99 13.02 14.71 15.22 16.69 17.62 18.72 19.91 20.78 21.12 21.87 22.76 24.35 24.53 24.53 24.30 23.80 23.79 23.85 24.01 24.36 24.32 24.22 23.63 21.98
22.20 11.94 6.87 11.49 3.89 9.91 9.99 8.11 9.33 4.55 4.73 5.93 8.59 6.66 5.81 8.59 7.66 8.83 10.40 11.70 12.28 12.87 14.17 15.40 16.20 17.66 18.78 19.56 20.70 21.43 22.21 23.03 24.17 23.77 23.65 23.53 23.92 24.01 23.90 23.50 23.55 23.63 23.21 22.84
22.57 12.16 15.31 11.62 6.98 8.37 8.97 13.38 8.61 9.08 2.73 2.07 1.59 6.03 7.48 8.12 8.23 8.48 9.54 10.39 10.37 11.83 13.23 14.81 16.11 16.99 18.00 18.90 19.58 21.17 21.67 22.31 23.16 22.41 22.15 22.60 22.39 22.21 22.00 22.25 22.60 22.66 21.84 21.40
16.82 12.55 7.10 4.48 11.40 14.14 9.73 8.10 2.54 1.65 -1.03 5.30 3.93 11.06 5.21 4.16 1.71 2.69 7.54 9.41 9.87 11.55 12.76 13.38 14.70 16.05 17.40 18.91 19.79 18.93 20.15 21.31 20.64 20.31 20.29 20.55 20.53 19.77 19.72 19.70 19.63 19.42 19.79 21.45
16.66 11.28 13.78 7.88 5.14 5.41 12.08 6.91 6.54 6.54 4.10 -0.82 1.72 5.25 4.07 2.75 2.14 3.70 8.32 7.32 9.44 10.41 11.74 12.49 13.36 14.30 15.01 16.81 17.03 18.02 18.27 18.02 17.73 17.40 17.99 18.77 18.51 17.81 17.84 17.52 17.15 17.35 17.81 17.91
20.92 15.39 10.57 5.63 11.42 11.81 16.94 13.01 12.70 12.12 13.89 7.18 5.85 3.93 1.28 4.53 7.95 6.82 5.23 3.01 5.31 3.65 5.70 6.60 8.64 10.29 14.49 13.89 15.63 16.31 15.57 16.04 15.91 15.38 15.66 16.13 16.50 15.93 16.14 15.55 15.43 16.08 16.60 16.67
24.71 19.13 13.44 18.34 7.27 6.11 13.91 11.51 16.65 11.82 13.82 12.18 8.97 8.17 6.93 15.82 6.62 5.96 0.25 2.37 3.13 3.90 5.82 8.73 11.30 13.85 13.13 11.84 15.73 15.53 14.44 14.45 13.93 14.81 15.22 15.86 16.14 15.44 14.52 15.09 15.28 16.38 16.74 16.50
16.95 17.44 6.95 14.34 8.55 12.51 14.23 19.08 22.93 14.34 20.35 12.48 11.95 11.88 14.08 14.03 12.05 4.42 4.21 3.49 2.92 5.91 7.27 8.10 9.15 8.24 8.11 12.19 13.54 12.54 12.24 12.02 14.54 15.55 15.61 15.44 15.41 14.81 14.87 14.79 15.04 14.88 14.64 14.81
14.31 12.73 11.85 14.52 13.35 13.24 18.51 21.36 17.57 20.10 7.71 13.85 10.29 8.82 14.26 2.47 -0.18 4.65 5.73 5.50 7.60 7.20 9.73 11.25 10.40 10.29 10.83 13.52 13.34 11.68 10.85 12.42 12.83 13.08 13.06 12.95 13.18 15.18 14.25 11.30 13.06 12.27 11.50 10.88
16.67 20.90 19.00 19.59 19.72 16.96 18.88 16.07 9.65 11.30 15.04 10.91 18.38 14.03 15.63 9.56 8.22 8.71 8.99 10.45 12.00 11.98 11.40 11.90 10.54 10.44 10.48 11.26 11.70 10.19 9.95 10.90 9.65 9.54 8.04 9.38 10.99 13.96 13.87 10.13 10.87 11.03 9.03 8.25
22.92 23.22 20.35 19.66 19.27 18.43 17.03 14.29 12.73 15.94 20.15 20.45 21.79 19.20 17.34 14.91 12.21 10.73 11.19 11.42 11.55 12.24 11.24 11.12 9.82 8.29 7.79 8.59 10.88 10.12 10.40 9.02 5.64 6.02 7.41 8.49 9.48 9.88 10.28 13.30 13.29 9.00 7.76 7.66
23.47 23.08 21.43 20.03 21.20 17.97 19.78 21.77 21.08 18.52 19.45 20.75 19.38 18.55 17.95 15.90 12.56 11.92 12.91 12.43 12.06 11.78 10.99 9.77 8.59 7.88 6.97 6.92 6.41 5.43 7.14 5.82 7.14 6.51 7.59 7.24 6.83 5.40 7.52 10.54 9.67 12.24 13.20 11.25
23.55 23.26 22.46 23.25 25.14 25.86 25.72 25.10 25.09 22.05 20.86 20.68 19.30 16.66 17.12 17.68 14.59 14.63 13.06 12.93 11.99 10.35 9.35 8.00 7.04 6.27 5.15 3.30 1.87 0.13 -0.27 3.43 5.26 6.62 6.02 5.01 5.68 4.14 5.19 4.38 4.13 16.28 17.83 18.83
MSLP
1018.39 1018.88 1019.91 1020.15 1020.13 1020.44 1020.19 1019.75 1019.19 1018.35 1018.16 1018.35 1018.19 1018.79 1019.34 1019.57 1019.53 1019.12 1019.06 1018.88 1018.37 1017.56 1016.51 1015.35 1014.05 1012.65 1011.77 1010.89 1010.29 1009.70 1009.28 1008.85 1008.58 1008.68 1008.61 1008.69 1008.09 1007.22 1006.87 1006.13 1006.19 1006.05 1006.40 1007.00
1019.18 1019.38 1019.65 1019.77 1019.94 1020.05 1019.93 1019.62 1019.24 1018.44 1018.18 1018.22 1018.72 1019.76 1020.17 1019.85 1020.12 1020.24 1020.23 1019.85 1019.42 1018.29 1016.88 1015.63 1014.17 1012.70 1011.83 1011.19 1010.52 1010.01 1009.70 1009.25 1008.61 1008.46 1008.16 1008.20 1007.61 1006.75 1006.28 1005.78 1005.87 1006.00 1006.23 1007.10
1020.07 1019.64 1019.60 1019.66 1019.79 1019.76 1020.01 1019.62 1019.51 1019.71 1018.63 1018.49 1019.26 1020.03 1020.33 1020.38 1020.69 1020.90 1020.98 1020.87 1019.97 1019.23 1018.03 1016.35 1014.71 1013.37 1011.92 1011.07 1010.51 1010.22 1009.67 1009.11 1008.51 1008.40 1007.83 1007.97 1007.58 1006.70 1006.21 1005.78 1005.68 1005.93 1006.27 1006.94
1020.23 1019.85 1019.97 1019.87 1020.21 1020.38 1020.08 1019.85 1019.72 1019.69 1019.75 1018.99 1019.27 1020.27 1020.35 1020.69 1020.98 1021.51 1021.41 1021.04 1020.62 1019.76 1018.51 1017.15 1015.66 1014.15 1012.97 1011.64 1010.66 1010.32 1009.78 1009.34 1008.85 1008.41 1007.94 1008.15 1007.51 1006.95 1006.26 1006.09 1005.93 1006.44 1007.03 1007.58
1020.57 1020.39 1020.17 1020.53 1020.25 1020.45 1020.49 1020.01 1019.95 1020.06 1020.30 1020.12 1019.57 1020.44 1020.82 1021.30 1021.67 1022.13 1022.35 1022.19 1021.58 1020.76 1019.57 1017.95 1016.70 1015.41 1014.14 1012.92 1011.85 1010.95 1010.42 1010.06 1009.64 1008.68 1008.20 1007.61 1007.25 1007.08 1006.38 1007.09 1007.09 1008.10 1008.33 1008.64
1021.06 1020.71 1020.75 1021.03 1020.31 1020.73 1020.96 1020.16 1020.05 1020.57 1020.95 1021.57 1021.15 1021.18 1022.17 1023.07 1024.15 1023.98 1023.71 1023.44 1022.60 1021.26 1019.80 1018.48 1017.38 1016.08 1014.87 1013.82 1012.88 1012.22 1011.70 1011.43 1010.63 1009.73 1008.95 1007.82 1007.66 1007.88 1008.04 1008.51 1008.56 1009.23 1009.69 1010.02
1022.25 1021.44 1021.50 1021.57 1021.30 1021.01 1021.23 1021.13 1021.79 1022.00 1022.40 1022.25 1021.50 1022.05 1023.22 1024.32 1025.15 1025.76 1025.42 1024.64 1023.58 1022.31 1020.71 1019.08 1017.62 1016.62 1015.81 1015.01 1014.42 1013.58 1013.22 1012.75 1012.07 1011.18 1010.39 1009.54 1009.26 1009.19 1009.51 1009.87 1010.32 1010.57 1011.29 1011.96
1024.69 1022.58 1022.24 1022.38 1023.00 1023.13 1022.97 1023.39 1023.84 1024.11 1023.79 1022.77 1021.63 1022.81 1023.47 1024.77 1025.60 1026.30 1026.53 1025.59 1024.38 1023.01 1021.80 1020.33 1019.04 1018.12 1017.27 1016.52 1015.93 1015.26 1014.67 1014.17 1013.58 1012.85 1012.14 1011.24 1010.86 1010.73 1011.19 1011.62 1011.88 1012.29 1012.83 1013.71
1025.78 1024.07 1022.79 1022.98 1022.97 1023.41 1023.39 1023.71 1024.05 1024.22 1023.84 1024.01 1022.82 1023.17 1023.97 1024.56 1025.72 1026.64 1026.46 1025.64 1024.83 1023.90 1022.75 1021.37 1020.16 1019.15 1018.36 1017.66 1017.07 1016.58 1015.97 1015.41 1014.88 1014.35 1013.96 1013.25 1012.66 1012.43 1012.63 1012.95 1013.03 1014.03 1014.83 1015.29
1026.21 1025.57 1023.07 1023.69 1023.59 1023.94 1024.27 1024.75 1025.01 1024.76 1024.51 1024.11 1023.53 1024.51 1025.71 1026.64 1027.07 1027.48 1026.75 1025.95 1025.40 1024.57 1023.60 1022.46 1021.44 1020.56 1019.65 1018.88 1018.23 1017.61 1017.05 1016.62 1016.48 1015.67 1015.49 1015.07 1014.30 1013.84 1014.33 1014.32 1014.68 1015.83 1016.36 1016.42
1025.98 1026.94 1024.04 1024.32 1024.97 1025.04 1025.26 1025.34 1025.81 1025.43 1025.04 1025.07 1025.29 1025.01 1026.67 1028.22 1028.73 1028.65 1027.59 1027.00 1026.39 1025.35 1024.37 1023.34 1022.45 1021.65 1020.95 1020.30 1019.71 1019.09 1018.39 1017.88 1017.49 1016.96 1017.04 1016.68 1015.87 1015.34 1015.87 1015.75 1016.81 1017.48 1017.71 1018.06
1025.65 1026.85 1025.55 1025.64 1025.28 1025.14 1025.88 1026.15 1027.13 1026.59 1026.18 1025.81 1026.47 1026.07 1027.06 1028.31 1028.86 1028.82 1028.15 1027.56 1026.98 1026.14 1025.28 1024.40 1023.49 1022.75 1022.09 1021.48 1020.88 1020.15 1019.62 1019.21 1018.89 1018.76 1019.02 1018.89 1017.63 1017.16 1016.80 1017.60 1018.56 1019.08 1019.15 1019.97
1025.59 1026.72 1026.87 1026.45 1026.83 1025.41 1026.34 1026.51 1027.65 1027.45 1027.35 1027.04 1027.68 1027.31 1027.19 1027.54 1028.34 1029.05 1028.96 1028.10 1027.47 1026.79 1025.90 1025.09 1024.15 1023.39 1022.96 1022.43 1021.92 1021.21 1020.85 1020.82 1019.92 1020.37 1020.84 1020.76 1019.48 1017.93 1018.16 1019.29 1020.07 1020.49 1020.91 1021.09
1025.20 1026.91 1027.50 1027.62 1028.37 1027.75 1027.24 1027.23 1027.97 1028.52 1028.35 1028.43 1028.17 1028.42 1027.96 1027.89 1029.04 1029.21 1029.26 1028.98 1028.21 1027.48 1026.73 1026.02 1024.89 1024.22 1023.65 1023.29 1022.84 1022.32 1021.88 1021.14 1021.60 1021.82 1021.89 1022.45 1020.59 1019.65 1020.43 1020.85 1021.49 1021.92 1022.41 1022.80
1025.55 1027.27 1027.67 1026.66 1028.60 1028.25 1027.89 1027.82 1028.57 1029.85 1029.81 1029.79 1028.85 1029.37 1029.36 1029.93 1029.66 1030.05 1030.23 1029.82 1028.99 1028.15 1027.35 1026.51 1025.75 1025.04 1024.31 1023.88 1023.37 1022.92 1022.51 1022.99 1023.69 1023.94 1023.51 1023.11 1022.15 1021.72 1022.05 1022.60 1023.59 1024.26 1024.23 1024.81
1026.15 1027.20 1028.07 1027.61 1028.06 1028.64 1028.00 1027.76 1029.16 1029.49 1030.57 1030.40 1030.08 1029.97 1029.79 1030.48 1030.82 1030.57 1030.26 1030.10 1029.79 1028.96 1027.98 1027.32 1026.61 1026.04 1025.29 1024.71 1024.43 1024.48 1024.57 1024.91 1024.54 1024.74 1024.77 1024.86 1023.71 1023.67 1024.16 1024.97 1025.66 1025.97 1026.35 1026.78
1026.21 1027.57 1028.56 1028.11 1026.68 1028.04 1028.31 1027.53 1028.32 1029.65 1030.02 1030.87 1030.27 1030.08 1030.26 1030.65 1031.24 1031.23 1030.99 1030.50 1030.00 1029.62 1029.09 1028.31 1027.65 1027.11 1026.66 1026.22 1026.16 1026.36 1026.83 1027.02 1026.73 1026.56 1026.13 1025.30 1025.33 1025.71 1026.80 1026.64 1027.25 1027.91 1028.07 1028.26
1026.44 1027.41 1028.48 1028.10 1027.06 1026.66 1026.70 1026.10 1027.07 1028.68 1029.00 1029.47 1030.39 1029.88 1030.45 1031.25 1031.33 1031.54 1031.43 1031.43 1030.93 1030.59 1030.25 1029.60 1028.81 1028.00 1027.57 1027.70 1027.87 1027.96 1027.97 1027.84 1027.49 1027.28 1027.35 1028.11 1027.88 1027.78 1027.75 1028.21 1029.01 1029.36 1029.56 1029.45
1026.28 1026.75 1027.81 1027.96 1027.47 1026.01 1026.54 1026.21 1026.11 1027.26 1027.67 1028.04 1029.12 1029.96 1030.19 1031.11 1031.70 1031.80 1031.79 1031.78 1031.53 1031.21 1030.75 1030.33 1029.96 1029.75 1029.70 1029.77 1029.81 1029.80 1029.80 1029.68 1029.59 1029.74 1029.59 1028.96 1028.67 1028.92 1029.37 1029.68 1030.13 1030.42 1030.18 1030.25
1026.28 1026.41 1027.21 1027.08 1026.51 1025.05 1024.06 1024.10 1024.14 1025.05 1025.96 1026.21 1027.53 1028.75 1029.58 1030.51 1031.28 1031.60 1031.79 1031.99 1031.93 1031.65 1031.18 1030.81 1030.91 1031.19 1031.44 1031.58 1031.16 1030.98 1030.89 1030.79 1030.60 1030.27 1029.86 1029.79 1029.71 1029.79 1030.18 1030.32 1031.04 1031.57 1030.89 1031.54
1026.18 1026.08 1026.25 1026.15 1025.52 1023.46 1022.42 1023.17 1023.92 1024.39 1024.28 1024.36 1026.15 1027.03 1028.21 1029.17 1029.27 1029.82 1030.99 1031.63 1031.73 1031.76 1031.59 1031.38 1031.42 1031.61 1031.72 1031.57 1031.55 1031.47 1031.37 1031.10 1031.07 1030.67 1030.35 1030.44 1030.76 1031.01 1031.33 1031.47 1031.65 1031.60 1032.38 1032.87
1024.29 1024.55 1024.89 1024.95 1024.18 1022.22 1021.71 1023.39 1023.40 1022.12 1022.79 1023.13 1024.90 1026.17 1027.09 1027.99 1028.93 1029.74 1030.84 1031.34 1031.50 1031.59 1031.64 1031.57 1031.61 1031.84 1031.82 1031.71 1031.73 1031.69 1031.33 1031.60 1031.37 1031.11 1031.09 1031.16 1031.35 1031.61 1031.93 1032.16 1032.65 1033.04 1033.17 1033.12
1022.81 1021.63 1021.56 1021.90 1020.40 1019.83 1020.15 1020.48 1021.58 1021.46 1021.84 1023.03 1023.58 1024.58 1025.67 1027.34 1028.58 1029.40 1030.26 1030.84 1031.12 1031.27 1031.55 1031.74 1031.85 1032.11 1032.18 1032.12 1032.04 1031.95 1032.22 1032.02 1031.87 1031.81 1032.19 1032.48 1032.66 1032.93 1033.19 1033.26 1033.36 1033.37 1033.74 1034.20
1020.95 1020.52 1020.56 1020.13 1019.33 1019.45 1019.57 1019.93 1021.01 1021.20 1021.28 1021.93 1022.62 1023.66 1025.02 1025.99 1027.47 1028.70 1029.63 1030.34 1030.75 1031.10 1031.38 1031.66 1031.98 1032.34 1032.65 1032.75 1032.66 1032.76 1032.82 1032.78 1032.78 1033.19 1033.53 1033.62 1033.59 1033.80 1033.93 1033.99 1033.99 1034.19 1034.29 1034.14
1019.87 1019.96 1019.44 1018.72 1017.74 1018.68 1018.81 1018.69 1018.88 1020.62 1021.00 1021.84 1022.57 1023.16 1024.26 1025.63 1027.00 1027.85 1028.85 1029.70 1030.29 1030.79 1031.31 1031.73 1032.17 1032.64 1033.05 1033.22 1033.36 1033.41 1033.46 1033.41 1033.76 1033.94 1034.07 1034.28 1034.48 1034.58 1034.48 1034.24 1033.90 1033.66 1033.57 1033.66
1018.29 1017.30 1017.68 1016.38 1015.46 1016.10 1016.27 1016.49 1017.60 1019.17 1020.24 1021.01 1022.05 1023.38 1024.24 1024.88 1025.92 1026.95 1027.92 1028.69 1029.44 1030.24 1031.01 1031.68 1032.12 1032.59 1033.02 1033.48 1033.78 1033.86 1034.02 1034.14 1034.28 1034.66 1034.92 1035.00 1035.07 1035.08 1035.06 1034.94 1034.65 1033.70 1033.34 1033.16
Wind_Speed
4 5 2 5 3 6 10 13 15 14 7 15 4 6 10 9 14 15 16 16 17 18 19 17 18 17 11 9 9 9 9 9 3 2 2 4 5 4 5 7 7 9 10 13
6 0 2 4 5 9 12 14 7 10 12 7 8 10 9 10 14 12 14 16 16 19 20 21 21 19 12 11 9 9 7 7 6 3 3 3 5 5 4 4 6 11 11 11
3 2 5 6 11 17 14 4 10 11 8 3 8 2 5 10 9 15 15 15 16 18 20 21 21 19 18 9 7 9 9 9 6 6 2 4 5 4 2 3 2 6 13 12
3 4 5 8 7 9 5 3 17 16 2 4 2 4 5 12 9 17 18 18 18 20 20 18 19 20 19 16 7 6 10 10 9 9 5 8 6 5 2 1 3 5 5 10
2 5 6 3 11 5 9 19 12 5 3 3 5 3 2 9 12 21 19 21 20 19 19 18 18 18 17 17 17 14 14 14 13 12 12 7 8 3 3 6 10 11 11 13
4 6 2 3 13 1 13 5 2 2 3 5 8 3 3 6 10 16 18 19 21 21 21 19 17 17 16 16 17 15 16 14 14 13 12 6 8 7 7 7 8 8 9 9
8 3 2 3 6 1 9 6 5 6 7 5 4 4 4 5 7 9 16 18 18 18 18 18 19 18 17 18 17 14 16 15 15 14 12 10 12 13 12 10 8 10 9 9
4 9 4 6 5 4 5 3 4 4 3 6 5 4 5 4 3 9 12 13 17 17 17 17 18 16 16 17 16 15 15 15 15 14 13 11 13 9 11 12 10 10 11 11
4 8 2 4 1 3 6 3 1 2 3 3 3 1 4 12 19 15 15 17 17 17 17 17 16 16 15 14 16 15 14 15 15 14 12 12 13 15 14 14 15 12 13 12
3 8 3 4 1 4 4 4 1 1 4 4 3 4 5 14 19 16 17 17 17 16 16 14 13 14 14 14 13 14 14 14 14 14 12 11 13 17 16 16 20 17 16 17
5 3 4 4 2 5 3 4 3 3 2 2 4 4 4 5 8 12 13 14 14 15 15 13 12 11 11 11 12 12 13 14 15 15 12 12 13 18 16 19 18 17 18 19
4 3 8 5 6 5 4 2 1 1 4 2 2 5 1 2 5 8 13 14 13 13 12 10 9 9 11 11 12 13 14 14 14 15 12 12 14 18 20 20 19 17 19 18
3 1 7 4 4 2 4 1 2 4 1 3 2 4 4 7 9 9 10 11 12 12 13 10 9 10 11 12 12 13 15 14 16 14 11 11 14 19 23 21 18 18 17 18
5 2 6 6 6 3 6 4 4 2 1 3 4 8 7 15 10 11 11 11 11 10 9 8 9 10 10 12 13 14 15 17 15 12 13 12 16 21 20 20 19 19 18 19
3 3 1 8 7 1 3 5 4 5 4 3 6 4 4 7 10 8 8 7 8 9 9 9 10 10 11 13 14 16 18 16 12 12 14 14 17 20 20 21 19 17 18 16
2 3 1 7 8 5 5 7 2 3 4 5 4 7 3 3 3 5 7 6 5 6 8 9 10 11 13 15 15 14 14 12 10 13 11 12 17 19 19 18 17 16 16 14
4 3 3 6 7 7 7 7 3 3 3 6 1 5 1 3 3 3 6 7 7 8 9 10 10 11 13 14 15 14 10 9 10 12 12 16 17 18 15 16 16 14 13 13
3 4 3 5 6 6 8 3 4 5 6 4 3 6 4 3 4 3 3 4 6 7 7 9 10 13 14 13 12 10 10 10 12 14 14 11 13 14 15 15 13 12 11 12
2 4 2 1 1 7 9 6 6 6 6 8 6 2 2 2 1 4 2 2 3 5 5 5 8 9 11 9 7 7 7 8 9 9 9 10 12 13 12 13 11 9 11 12
3 5 5 1 2 4 9 5 4 4 4 11 8 7 7 7 3 5 5 2 2 3 3 7 7 8 7 5 4 6 6 7 9 8 10 10 11 12 12 11 10 7 10 11
2 1 4 3 4 9 6 6 6 6 9 8 10 8 11 7 5 4 6 3 2 2 5 4 6 6 2 3 2 6 6 9 6 8 10 11 11 11 9 9 8 9 8 7
7 7 5 2 1 7 8 6 9 7 4 7 8 6 7 4 5 7 7 6 5 6 4 4 6 5 4 4 4 6 9 5 6 9 10 11 10 8 7 7 7 5 5 7
3 7 6 10 8 4 9 6 3 4 7 7 11 8 10 9 7 9 9 9 7 8 6 5 6 5 4 4 3 7 3 5 7 10 9 8 7 7 6 5 6 6 5 2
5 4 3 3 3 6 8 3 5 6 5 6 5 8 11 11 10 9 9 8 7 6 5 4 6 5 4 3 4 4 5 5 7 8 6 4 6 5 5 4 3 2 2 2
4 6 4 8 5 1 8 12 7 8 6 10 7 8 12 12 10 9 8 8 7 7 6 5 6 5 5 3 3 2 4 5 6 5 4 4 3 2 2 2 2 2 1 4
8 10 8 9 7 3 3 14 13 14 14 14 14 11 8 12 16 12 11 10 9 8 6 6 6 6 6 5 4 3 3 4 5 5 3 1 2 2 2 1 2 4 5 7
Wind_Direction
304 58 329 309 298 283 296 301 301 300 345 328 283 56 49 25 20 13 4 356 351 344 335 337 330 333 315 300 325 339 338 304 271 270 287 286 257 250 251 252 239 182 164 167
9 238 270 292 315 324 318 305 292 293 321 316 82 48 19 23 23 12 0 354 348 342 343 340 339 344 332 303 318 318 306 300 295 235 210 238 258 258 238 238 221 190 162 161
172 254 351 333 331 340 329 264 311 301 317 45 131 135 51 2 3 4 3 351 354 353 341 339 344 346 341 303 305 315 315 315 308 278 292 275 273 285 310 204 139 144 145 147
247 321 355 327 315 357 311 295 311 302 322 157 154 267 8 349 351 359 354 357 352 346 343 342 347 351 352 353 328 331 7 359 342 324 300 243 234 237 196 279 107 76 134 160
281 334 324 341 320 349 251 316 294 282 272 13 146 106 342 357 344 348 351 347 345 343 342 343 349 355 359 6 9 13 11 3 346 339 325 241 227 248 36 64 79 59 48 42
256 285 72 287 301 37 323 343 359 273 80 28 297 120 320 1 335 335 339 341 342 342 342 346 352 1 6 12 15 13 11 6 2 358 351 40 67 73 81 64 73 66 53 45
339 275 30 352 329 337 358 22 354 354 6 227 280 2 260 329 344 343 334 334 341 341 343 347 356 1 6 14 14 14 14 13 7 10 18 46 62 69 70 60 66 68 66 55
39 331 39 335 127 234 352 87 137 263 318 288 354 343 274 186 15 0 349 333 342 344 345 350 356 0 5 15 18 19 22 21 15 16 22 46 63 69 68 69 74 69 68 64
20 279 113 62 98 82 331 5 316 220 196 343 251 166 127 333 346 353 350 351 346 346 347 352 356 0 4 12 20 23 31 31 25 29 30 42 65 73 74 71 72 71 73 75
213 289 203 130 40 78 81 331 190 358 335 308 308 302 253 336 335 345 343 345 344 346 347 349 357 4 9 15 17 23 33 42 34 36 39 48 70 74 77 76 75 72 72 70
128 126 286 88 356 214 10 12 354 283 191 308 316 291 204 288 318 331 329 340 340 340 344 348 355 7 15 22 26 29 33 42 41 42 39 50 72 77 78 76 75 72 75 71
143 209 277 198 245 170 123 175 157 353 335 299 245 288 300 245 335 340 335 340 344 346 341 350 354 14 26 29 32 37 41 45 45 51 43 53 74 83 77 73 73 74 76 75
175 202 326 35 348 273 96 90 70 254 282 276 299 289 231 8 352 353 345 341 342 350 345 355 7 25 36 37 40 48 52 51 49 52 50 62 76 81 75 75 73 71 74 75
129 146 172 205 196 235 334 338 8 107 64 287 229 290 312 328 342 342 344 342 335 340 349 4 16 29 39 46 47 51 53 51 52 54 58 65 69 72 75 73 69 68 68 69
100 170 240 272 128 264 242 276 350 112 223 201 289 268 267 302 318 329 318 325 332 347 4 15 28 34 40 49 53 50 50 49 50 64 63 58 69 73 73 72 70 69 69 69
38 285 31 293 106 132 280 284 178 212 182 273 285 286 184 247 308 315 328 342 353 360 12 23 37 38 43 43 43 49 47 48 45 61 71 69 70 71 68 71 70 70 71 71
104 91 42 270 310 131 348 238 198 269 207 162 24 238 210 309 310 303 325 343 7 13 19 25 31 41 45 42 43 43 52 69 71 74 70 65 64 68 72 72 67 64 67 73
128 105 153 269 345 24 237 270 167 167 238 209 281 264 217 219 270 297 349 348 2 4 25 41 41 40 32 36 35 46 50 55 58 57 60 71 84 78 70 70 68 66 66 70
139 118 326 51 230 284 134 243 172 152 276 191 197 231 251 212 137 316 271 332 318 322 332 42 51 45 43 30 28 57 58 68 73 74 75 65 68 74 75 75 69 63 69 63
142 104 117 321 94 187 235 225 198 127 327 175 172 182 174 169 57 249 196 188 5 360 354 63 57 71 67 31 56 82 76 80 76 76 76 73 72 74 70 66 65 70 71 68
193 244 155 219 259 286 228 162 165 81 234 156 176 175 166 185 192 157 130 118 185 157 105 80 77 82 39 59 78 95 92 64 68 76 76 72 70 73 71 73 64 65 74 73
172 149 195 159 288 308 154 112 165 215 335 149 162 182 189 141 139 135 145 152 139 116 89 79 90 78 61 51 94 92 78 51 59 71 71 64 58 63 58 63 63 66 76 75
275 193 181 179 217 244 209 173 200 166 145 196 173 171 158 152 173 164 160 159 156 139 133 116 114 105 67 46 70 98 54 70 72 71 62 60 60 68 67 71 65 61 44 67
238 168 241 47 285 224 228 248 158 192 165 167 178 157 160 162 153 154 150 154 148 146 136 135 131 124 116 53 72 85 101 87 81 85 83 73 84 71 50 60 75 117 132 76
197 129 199 266 259 358 238 227 173 156 147 144 140 165 168 144 154 153 154 158 157 154 149 154 153 148 154 127 107 97 116 111 104 99 92 85 83 87 91 79 126 60 179 144
189 185 177 218 200 189 210 208 181 159 171 166 158 151 166 165 160 161 163 168 163 161 153 158 169 161 173 163 169 177 143 131 132 122 121 120 108 69 76 67 22 31 93 72